This demonstration page uses our WeatherBlox Daily Observations layout. Learn more.

Left ArrowRight Arrow

36.17497, -115.13722

Hourly Observations for June 13, 2021

Temp ( °F °C ) Dew Point ( °F °C ) Humidity (%) Winds ( mph kmh ) Pressure ( in mb ) Visibility ( mi km ) Precip ( " mm )
12:53 am 00:53 Clear 82 27.8 24 -4.4 12 12 NW 6 9 29.72 1006 10 16 N/A
1:53 am 01:53 Clear 81 27.2 22 -5.6 11 11 NNW 6 9 29.72 1006 10 16 N/A
2:53 am 02:53 Clear 77 25 22 -5.6 13 13 NNW 7 11 29.72 1007 10 16 N/A
3:53 am 03:53 Clear 78 25.6 18 -7.8 10 10 NW 8 13 29.72 1007 10 16 N/A
4:53 am 04:53 Clear 76 24.4 22 -5.6 13 13 WNW 8 13 29.75 1007 10 16 N/A
5:53 am 05:53 Sunny 74 23.3 26 -3.3 17 17 NW 7 11 29.76 1008 10 16 N/A
6:53 am 06:53 Sunny 79 26.1 23 -5 12 12 NW 6 9 29.78 1008 10 16 N/A
7:53 am 07:53 Sunny 86 30 25 -3.9 11 11 N N/A 29.79 1009 10 16 N/A
8:53 am 08:53 Sunny 88 31.1 19 -7.2 8 8 VRB 3 6 29.80 1009 10 16 N/A
9:53 am 09:53 Sunny 94 34.4 19 -7.2 6 6 E 8 13 29.80 1009 10 16 N/A
10:53 am 10:53 Sunny 97 36.1 23 -5 7 7 E 9 15 29.80 1009 10 16 N/A
11:53 am 11:53 Sunny 101 38.3 20 -6.7 5 5 SE 9 15 29.79 1009 10 16 N/A
12:53 pm 12:53 Sunny 104 40 19 -7.2 5 5 ESE 12 19 29.77 1008 10 16 N/A
1:53 pm 13:53 Sunny 106 41.1 18 -7.8 4 4 E 13 20 29.74 1007 10 16 N/A
2:53 pm 14:53 Sunny 106 41.1 18 -7.8 4 4 SSE 10 17 29.73 1007 10 16 N/A
3:53 pm 15:53 Sunny 108 42.2 15 -9.4 3 3 SSE 10 17 29.71 1006 10 16 N/A
4:53 pm 16:53 Sunny 109 42.8 4 -15.6 2 2 SSW 18 30 29.70 1006 10 16 N/A
5:53 pm 17:53 Sunny 107 41.7 13 -10.6 3 3 SW 15 24 29.70 1006 10 16 N/A
6:53 pm 18:53 Sunny 105 40.6 17 -8.3 4 4 SW 15 24 29.70 1006 10 16 N/A
7:53 pm 19:53 Sunny 102 38.9 20 -6.7 5 5 WSW 8 13 29.71 1006 10 16 N/A
8:53 pm 20:53 Clear 98 36.7 23 -5 7 7 NW 3 6 29.73 1007 10 16 N/A
9:53 pm 21:53 Clear 95 35 26 -3.3 8 8 WSW 8 13 29.74 1007 10 16 N/A
10:53 pm 22:53 Clear 93 33.9 27 -2.8 9 9 SW 7 11 29.75 1008 10 16 N/A
11:53 pm 23:53 Clear 91 32.8 27 -2.8 10 10 N N/A 29.75 1008 10 16 N/A

Powered by AerisWeather